Location: �terpigny
(49.8910°N, 2.9249°E)
Time: 04:22:01
(UTC+00:00)

Cosmos 614 Rocket - Pass Details

Date: 01 June 2022
Orbit: 732 x 764 km, 74.1° (Epoch: 05 July)

Event Time Altitude Azimuth Distance (km) Brightness Sun altitude
Rises 22:34:02 0° 343° (NNW) 3,219 9.1 -16.2°
Reaches altitude 10° 22:37:29 10° 7° (N) 2,297 7.5 -16.4°
Maximum altitude 22:40:27 15° 42° (NE) 1,967 6.5 -16.5°
Drops below altitude 10° 22:43:25 10° 77° (ENE) 2,299 6.5 -16.6°
Sets 22:46:51 0° 100° (E) 3,224 7.0 -16.8°
